Location: Bakov nad Jizerou
(50.4784°N, 14.9394°E)
Time: 07:04:17
(UTC+00:00)

ATLAS 3B R/B - Pass Details

Date: 16 June 2021
Orbit: 1003 x 1191 km, 63.8° (Epoch: 21 July)

Event Time Altitude Azimuth Distance (km) Brightness Sun altitude
Exits shadow 21:18:01 - 205° (SSW) 3,594 5.1 -12.7°
Reaches altitude 10° 21:20:16 10° 202° (SSW) 2,781 4.5 -12.9°
Maximum altitude 21:26:39 60° 124° (SE) 1,164 2.7 -13.2°
Drops below altitude 10° 21:33:18 10° 47° (NE) 2,888 5.3 -13.6°
Sets 21:36:02 0° 44° (NE) 3,873 6.0 -13.8°
